SCP
0 0 0 0 0 0 0 0 0 0 0 0 0 0 0 0 0 0 0 0 0 0 0 0 0 0 0 0 0 0 0 0 0 0 0 0 0 0 0 0 0 0 0
0 0 0 0 0 0 0 0 0 0 0 0 0 0 0 0 0 0 0 0 0 0 0 0 0 0 0 0 0 0 0 0 0 0 0 0 0 0 0 0 0 0 0
0 0 0 0 0 0 0 0 0 0 0 0 0 0 0 0 0 0 0 0 0 0 0 0 0 0 0 0 0 0 0 0 0 0 0 0 0 0 0 0 0 0 0
0 0 0 0 0 0 0 0 0 0 0 0 0 0 0 0 0 0 0 0 0 0 0 0 0 0 0 0 0 0 0 0 0 0 0 0 0 0 0 0 0 0 0
0 0 0 0 0 0 0 0 0 0 0 0 0 0 0 0 0 0 0 0 0 0 0 0 0 0 0 0 0 0 0 0 0 0 0 0 0 0 0 0 0 0 0
0 0 0 0 0 0 0 0 0 0 0 0 0 0 0 0 0 0 0 0 0 0 0 0 0 0 0 0 0 0 0 0 0 0 0 0 0 0 0 0 0 0 0
0 0 0 0 0 0 0 0 0 0 0 0 0 0 0 0 0 0 0 0 0 0 0 0 0 0 0 0 0 0 0 0 0 0 0 0 0 0 0 0 0 0 0
0 0 0 0 0 0 0 0 0 0 0 0 0 0 0 0 0 0 0 0 0 0 0 0 0 0 0 0 0 0 0 0 0 0 0 0 0 0 0 0 0 0 0
0 0 0 0 0 0 0 0 0 0 0 0 0 0 0 0 0 0 0 0 0 0 0 0 0 0 0 0 0 0 0 0 0 0 0 0 0 0 0 0 0 0 0
0 0 0 0 0 0 0 0 0 0 0 0 0 0 0 0 0 0 0 0 0 0 0 0 0 0 0 0 0 0 0 0 0 0 0 0 0 0 0 0 0 0 0
0 0 0 0 0 0 0 0 0 0 0 0 0 0 0 0 0 0 0 0 0 0 0 0 0 0 0 0 0 0 0 0 0 0 0 0 0 0 0 0 0 0 0
1 1 1 1 1 1 0 0 0 0 0 0 0 0 0 0 0 0 0 0 0 0 0 0 0 0 0 0 0 0 0 0 0 0 0 0 0 0 0 0 0 0 0
1 1 1 1 1 1 1 1 1 1 0 0 0 0 0 0 0 0 0 0 0 0 0 0 0 0 0 0 0 0 0 0 0 0 0 0 0 0 0 0 0 0 0
1 1 1 1 1 1 1 1 1 1 1 0 0 0 0 0 0 0 0 0 0 0 0 0 0 0 0 0 0 0 0 0 0 0 0 0 0 0 0 0 0 0 0
1 1 1 1 1 1 1 1 1 1 1 1 0 0 0 0 0 0 0 0 0 0 0 0 0 0 0 0 0 0 0 0 0 0 0 0 0 0 0 0 0 0 0
1 1 1 1 1 1 1 1 1 1 1 1 1 0 0 0 0 0 0 0 0 0 0 0 0 0 0 0 0 0 0 0 0 0 0 0 0 0 0 0 0 0 0
1 1 1 1 1 1 1 1 1 1 1 1 1 1 0 0 0 0 0 0 0 0 0 0 0 0 0 0 0 0 0 0 0 0 0 0 0 0 0 0 0 0 0
1 1 1 1 1 1 1 1 1 1 1 1 1 1 0 0 0 0 0 0 0 0 0 0 0 0 0 0 0 0 0 0 0 0 0 0 0 0 0 0 0 0 0
1 1 1 1 1 1 1 1 1 1 1 1 1 1 0 0 0 0 0 0 0 0 0 0 0 0 0 0 0 0 0 0 0 0 0 0 0 0 0 0 0 0 0
1 1 1 1 1 1 1 1 1 1 1 1 1 1 0 0 0 0 0 0 0 0 0 0 0 0 0 0 0 0 0 0 0 0 0 0 0 0 0 0 0 0 0
1 1 1 1 1 1 1 1 1 1 1 1 1 1 0 0 0 0 0 0 0 0 0 0 0 0 0 0 0 0 0 0 0 0 0 0 0 0 0 0 0 0 0
1 1 1 1 1 1 1 1 1 1 1 1 1 1 0 0 0 0 0 0 0 0 0 0 0 0 0 0 0 0 0 0 0 0 0 0 0 0 0 0 0 0 0
1 1 1 1 1 1 1 1 1 1 1 1 1 1 0 0 0 0 0 0 0 0 0 0 0 0 0 0 0 0 0 0 0 0 0 0 0 0 0 0 0 0 0
0 0 0 0 1 1 1 1 1 1 1 1 1 1 0 0 0 0 0 0 0 0 0 0 0 0 0 0 0 0 0 0 0 0 0 0 0 0 0 0 0 0 0
0 0 0 0 0 1 1 1 1 1 1 1 1 1 1 0 0 0 0 0 0 0 0 0 0 0 0 0 0 0 0 0 0 0 0 0 0 0 0 0 0 0 0
0 0 0 0 0 1 1 1 1 1 1 1 1 1 1 0 0 0 0 0 0 0 0 0 0 0 0 0 0 0 0 0 0 0 0 0 0 0 0 0 0 0 0
Wind_Speed
14 17 17 14 14 14 15 15 15 15 15 14 14 14 13 12 12 11 11 10 11 11 11 12 12 12 13 13 13 13 13 14 14 14 14 15 14 14 13 13 12 14 15
17 18 17 15 15 15 15 15 15 15 15 14 14 13 13 12 11 11 10 10 11 11 11 12 12 13 13 13 13 13 13 13 13 14 14 14 14 12 11 9 11 13 14
19 19 18 15 15 15 15 15 15 15 15 14 14 13 12 12 11 11 11 11 11 11 11 11 12 12 12 12 12 12 12 12 12 11 10 11 13 12 11 13 15 14 13
19 19 18 17 16 16 15 15 15 15 14 14 13 13 12 11 11 11 11 11 11 11 11 11 11 12 12 12 12 12 12 12 9 8 6 10 11 12 12 13 13 13 13
18 17 18 18 17 16 15 14 14 14 14 14 13 13 12 11 11 11 11 11 11 11 11 11 11 11 11 11 11 11 11 10 6 4 8 9 10 11 11 12 12 12 12
18 17 19 18 17 16 16 15 14 14 14 13 13 12 12 11 11 11 11 11 11 11 10 10 10 10 10 10 10 10 10 8 8 7 7 8 10 11 11 11 11 11 11
18 17 20 17 17 16 16 15 15 14 13 13 12 12 12 11 11 11 11 11 11 10 10 10 9 9 9 8 8 9 8 4 2 7 6 8 10 10 10 10 10 10 10
18 17 19 18 17 16 15 15 14 14 13 12 12 12 11 11 11 10 10 10 10 10 10 9 9 8 7 7 7 8 6 6 5 6 6 9 11 9 9 9 9 9 9
17 16 17 17 16 16 15 14 14 14 13 12 12 11 11 11 10 10 10 10 10 9 9 9 8 8 7 7 7 7 4 4 2 5 6 8 10 8 8 8 8 8 9
15 15 15 16 15 15 15 15 14 13 13 12 11 11 11 11 10 10 10 9 9 8 8 8 8 7 6 6 7 7 5 6 3 6 5 9 9 8 8 8 8 8 8
14 14 14 15 14 14 13 15 14 13 12 12 11 11 11 9 10 9 10 10 8 8 7 7 7 6 6 7 6 6 7 3 4 3 5 12 8 7 7 7 7 7 7
16 15 13 14 13 13 11 12 10 10 11 10 9 11 7 5 5 6 11 8 8 7 7 6 5 6 7 6 8 8 4 3 3 4 7 10 7 7 7 7 7 6 6
15 14 14 13 13 12 8 9 7 6 7 8 9 8 6 6 5 6 6 7 7 8 6 7 8 5 3 1 2 3 1 1 1 3 8 9 6 7 7 7 7 6 6
14 14 13 12 11 11 9 7 7 6 6 6 8 8 7 4 4 4 4 5 5 4 3 4 3 2 2 2 2 1 3 2 1 1 7 9 7 6 7 7 7 7 7
14 14 13 11 11 10 8 6 7 7 7 7 6 7 6 5 5 5 3 3 4 4 4 3 3 3 3 3 2 2 2 1 1 1 5 8 7 7 7 7 7 7 7
14 14 13 12 11 10 8 7 6 7 6 6 6 7 7 5 4 4 4 4 3 3 3 3 3 3 3 2 3 2 3 2 3 2 3 7 9 7 7 7 8 8 8
14 13 13 12 11 11 10 9 7 6 7 6 6 7 7 6 5 4 4 4 4 4 4 3 3 3 3 3 3 3 2 2 2 3 2 2 6 9 9 8 8 8 8
12 13 12 11 12 11 9 8 6 6 7 6 5 6 7 6 5 5 4 4 4 4 4 3 3 3 2 2 2 2 2 2 3 3 4 4 3 4 9 9 7 8 8
11 12 12 11 11 11 10 8 6 5 6 5 5 5 6 6 6 5 4 3 5 4 3 4 3 2 2 2 3 3 2 3 3 4 3 4 3 3 3 8 8 7 8
11 11 12 11 11 10 9 7 6 6 6 5 5 5 7 6 7 6 5 5 5 4 3 2 3 1 1 2 3 1 2 2 3 3 4 3 3 4 3 4 6 7 8
11 11 12 11 11 10 8 8 7 7 6 6 6 7 8 7 7 6 5 5 5 4 4 5 4 4 3 2 3 3 4 4 3 3 3 2 3 2 2 3 3 3 5
12 11 11 12 12 11 9 7 6 6 6 6 5 7 8 8 8 7 6 6 5 4 5 4 4 3 2 3 4 3 3 5 5 3 3 3 3 3 4 4 3 3 3
12 12 10 11 12 12 11 7 6 6 5 6 7 7 8 9 8 6 7 6 5 6 5 5 5 5 3 3 3 4 3 3 4 5 3 3 3 3 4 3 4 4 4
11 10 10 11 11 12 12 11 12 9 9 9 7 7 8 8 8 8 7 7 6 5 4 6 5 4 4 4 4 3 4 4 3 3 6 5 4 4 3 3 3 4 4
10 10 10 11 11 12 12 13 12 10 8 7 7 8 8 8 8 8 8 6 6 5 5 4 4 5 4 5 3 3 3 3 6 4 3 4 5 5 4 4 2 2 3
9 9 10 11 11 11 12 12 12 12 10 9 9 9 9 7 7 9 8 7 7 5 6 6 5 6 4 3 4 4 4 4 4 4 3 4 4 4 4 2 3 3 3
Wind_Direction
156 144 144 150 146 143 140 138 136 134 134 134 133 131 129 125 122 117 113 110 108 106 104 103 103 103 103 102 103 105 108 109 108 108 107 105 104 106 110 118 122 106 109
148 142 145 150 147 144 141 139 137 136 136 135 134 133 131 128 124 121 117 114 110 107 105 104 103 103 102 103 104 105 108 109 112 113 116 110 105 104 102 92 83 101 112
147 143 150 151 149 145 142 140 139 138 138 137 136 134 132 130 127 124 121 118 113 110 108 106 105 105 104 104 104 105 108 110 114 126 144 122 111 106 101 96 99 109 110
148 148 154 149 150 147 144 143 141 140 140 139 138 136 134 132 130 127 123 119 115 113 110 109 107 106 106 107 107 107 110 111 120 167 143 113 114 109 110 108 110 112 111
149 149 144 152 152 150 147 145 143 142 142 141 139 137 135 132 129 126 123 118 115 114 113 112 111 109 110 110 109 110 113 117 147 184 100 104 106 114 115 114 114 114 114
150 152 145 157 154 152 150 148 146 145 144 143 141 139 136 133 129 125 120 117 115 115 114 113 112 111 110 113 115 114 118 142 194 111 110 115 112 120 120 119 117 117 117
156 153 148 159 156 155 154 151 149 148 146 144 142 139 137 133 129 124 119 117 117 116 114 113 112 111 112 114 119 122 129 194 161 107 116 105 105 122 124 122 120 120 119
159 155 148 159 158 157 156 154 152 150 147 145 142 138 134 131 128 123 122 121 119 117 116 115 114 111 109 113 120 127 147 229 135 116 110 102 108 125 125 124 125 126 126
162 156 154 161 161 160 158 158 156 153 150 148 145 140 136 130 127 125 123 123 121 120 119 118 115 109 107 110 121 129 141 268 187 121 121 109 121 130 130 130 130 130 129
166 163 161 165 162 165 163 162 161 157 154 151 148 145 139 135 134 134 141 125 126 126 124 122 119 112 109 112 122 132 157 232 160 133 121 115 132 140 137 137 138 137 135
171 168 169 167 166 170 166 158 165 162 157 158 157 152 164 166 151 159 124 129 132 130 126 125 124 124 137 138 136 155 196 211 126 113 102 112 143 149 148 147 146 144 146
175 176 173 173 168 171 166 159 171 172 163 178 160 165 176 148 147 133 118 136 138 137 137 134 137 171 212 164 153 189 203 171 139 132 108 127 153 159 158 158 157 157 157
179 181 175 173 169 174 167 167 171 171 162 173 164 168 158 159 157 150 150 151 157 168 169 156 187 199 189 136 183 187 160 184 155 133 120 142 163 172 169 169 172 174 172
183 184 178 172 173 177 174 172 173 170 169 172 165 177 164 170 166 158 163 158 169 170 165 184 185 174 184 178 219 217 187 214 155 114 122 153 174 184 185 185 189 190 186
185 183 179 174 174 174 173 185 180 173 173 170 167 175 174 174 175 162 161 171 177 163 171 187 187 174 187 185 206 193 219 186 172 189 127 157 179 188 195 198 199 198 196
185 180 176 177 176 176 177 187 181 178 174 174 175 173 183 179 172 170 170 176 172 176 164 181 172 181 198 177 195 184 219 198 154 197 161 160 177 187 199 206 205 202 202
181 177 176 177 178 182 184 187 185 182 178 179 173 174 182 185 172 180 170 179 173 164 163 179 176 187 192 189 196 192 196 215 170 187 192 188 173 181 192 204 207 205 206
180 178 178 182 181 184 185 186 188 187 179 179 177 177 185 186 183 192 180 179 166 180 181 172 200 194 194 207 188 211 191 191 200 204 203 200 205 184 180 189 199 203 208
182 181 182 186 185 184 179 179 188 185 183 182 182 183 181 184 185 194 191 158 184 185 187 201 165 218 198 212 203 193 215 210 205 209 209 208 193 214 185 168 187 200 209
184 184 185 189 186 178 174 174 178 184 187 186 183 183 179 181 184 189 183 175 193 183 184 184 157 207 245 235 249 190 224 207 217 192 211 194 197 206 205 181 186 189 196
182 184 186 190 183 176 174 176 176 183 188 186 186 181 182 186 182 190 184 176 201 186 189 184 192 181 212 217 230 213 193 201 196 190 217 214 178 189 195 189 214 200 178
185 188 189 189 183 181 179 178 178 176 185 186 186 180 187 188 185 187 190 189 188 178 185 192 211 234 207 211 252 235 209 183 197 186 194 207 202 192 192 189 188 205 237
192 191 189 186 182 182 175 170 170 168 180 182 184 183 188 188 186 187 186 195 184 199 183 197 203 219 222 204 248 270 256 217 167 171 191 196 203 213 211 183 195 187 210
193 190 189 188 185 182 177 180 182 185 188 189 185 177 179 185 183 182 188 192 200 207 179 203 200 215 230 219 190 248 297 340 271 178 184 180 189 211 213 222 186 180 199
189 188 188 188 187 184 184 183 186 192 194 187 182 172 181 179 184 184 187 190 197 208 197 208 183 226 224 241 225 207 213 228 258 268 204 183 191 193 193 209 213 205 190
184 186 187 188 187 182 184 187 191 193 193 188 185 178 185 180 185 186 187 191 199 200 191 200 202 208 236 248 261 245 230 229 232 244 239 218 210 190 194 207 224 216 218